Theta_e
346 350 354 358 371 370 371 365 362 365 365 354 354 362 364 360 365 369 353 352 352 351 353 352 351 351 348 346 350 352 352 352 350 353 351 351 351 351 352 355 355 354 350 349 353 351 349 354 352
349 353 354 361 370 372 371 362 366 361 359 352 356 359 359 361 353 353 353 351 351 351 350 354 345 349 344 344 345 350 352 352 351 352 352 353 352 351 352 353 354 354 355 354 352 354 353 353 353
354 355 363 371 366 372 368 360 359 357 355 356 356 358 358 357 352 352 351 351 351 350 350 355 342 341 343 342 345 349 351 353 351 351 353 353 352 352 351 352 352 351 353 354 354 352 353 354 350
353 360 361 366 368 366 363 360 355 357 352 356 356 364 354 352 352 351 351 350 350 350 354 351 347 339 339 347 344 349 348 348 350 351 352 352 352 352 352 353 353 353 353 351 353 352 351 349 344
354 361 371 368 358 357 357 358 357 358 354 356 357 362 357 352 352 351 350 350 351 356 357 355 349 340 339 347 347 350 350 350 349 349 352 352 353 352 352 351 349 350 349 351 351 345 342 346 343
363 358 367 366 356 355 354 354 355 355 353 355 357 360 359 353 351 351 350 351 355 356 354 355 353 345 341 346 347 347 347 346 344 345 345 342 342 342 348 350 352 352 349 351 347 345 346 343 342
360 365 364 358 358 356 355 352 355 356 356 357 355 361 356 353 351 351 350 354 354 353 354 355 355 354 348 347 348 349 349 348 344 346 344 338 340 342 345 347 348 347 349 351 351 349 345 344 342
353 360 356 358 360 362 351 352 356 352 345 348 354 362 361 352 350 350 351 352 353 352 352 353 353 353 353 354 354 354 353 350 343 340 340 336 338 341 344 343 346 344 341 344 345 350 347 349 349
349 359 358 353 357 360 351 350 355 348 349 352 353 357 354 351 350 350 352 352 352 353 352 352 353 353 353 353 354 354 353 352 342 340 336 338 337 340 347 344 340 337 339 339 344 348 345 341 349
354 356 352 350 348 349 348 352 349 355 353 349 358 355 353 351 350 350 353 355 354 354 353 352 352 353 353 353 352 352 352 351 345 342 336 335 338 340 342 339 338 340 343 343 343 343 344 348 347
346 352 346 345 346 347 347 350 352 350 350 351 363 358 355 352 351 350 349 354 355 355 354 354 353 352 349 350 348 352 353 351 348 341 335 334 335 341 337 343 346 345 348 348 347 347 346 348 345
346 344 344 344 342 344 348 345 354 355 349 348 354 353 355 354 353 351 350 350 353 353 355 354 354 353 348 351 353 350 350 347 347 346 343 337 338 337 337 342 342 345 348 348 345 347 349 349 349
345 340 339 339 340 342 341 347 349 353 354 350 354 358 357 356 354 351 350 350 350 352 351 352 351 349 349 352 352 350 348 348 347 347 348 343 341 340 340 347 346 346 347 346 348 349 347 348 350
342 339 338 339 341 342 343 347 347 356 352 352 358 360 358 356 354 354 352 352 351 350 350 351 350 351 350 350 350 349 349 349 350 348 350 346 345 344 346 343 347 345 346 347 350 350 348 349 344
339 338 335 339 342 344 343 350 356 356 355 356 355 359 357 357 356 355 353 352 352 352 349 353 351 349 353 351 350 351 351 351 349 349 348 351 348 344 346 341 342 347 347 350 351 351 352 350 350
339 337 339 343 341 345 343 358 348 347 354 356 361 359 356 356 352 352 351 349 351 351 352 353 352 353 354 353 352 353 350 351 349 348 348 351 348 345 341 342 341 348 349 349 350 352 349 348 350
338 340 343 344 342 343 345 355 347 347 352 357 360 357 358 358 351 350 351 349 350 352 351 351 353 354 355 353 352 352 354 352 351 350 348 349 350 341 345 340 342 340 349 349 351 351 349 352 351
341 342 344 346 345 343 347 359 355 353 353 353 354 356 359 360 355 349 347 345 343 351 351 352 353 353 354 354 353 354 353 352 352 348 349 350 348 347 345 340 347 347 349 350 350 350 349 349 352
341 342 340 342 342 340 343 346 350 352 352 352 354 360 359 358 354 350 346 346 348 343 350 354 353 354 353 355 353 351 354 353 352 351 349 348 348 348 344 347 341 343 348 349 344 344 344 346 351
340 340 337 341 341 339 347 350 351 351 350 349 353 355 356 355 353 351 351 337 341 349 347 353 354 354 355 354 355 354 353 351 350 349 345 348 349 351 344 348 349 348 347 349 350 342 350 344 349
336 339 339 340 342 341 340 361 356 354 350 349 351 352 351 352 351 349 349 350 349 351 354 355 354 354 356 355 356 354 353 351 350 349 349 344 347 349 345 346 349 350 350 349 351 345 348 349 351
335 335 339 338 339 341 343 352 354 352 351 350 351 352 351 350 349 350 353 350 352 352 355 354 355 356 357 357 356 355 353 352 349 344 345 345 346 346 348 347 348 349 350 348 350 348 351 350 351
335 337 339 337 338 338 344 359 356 349 355 351 350 351 348 351 348 348 348 348 349 349 350 354 356 356 357 357 355 353 352 352 347 346 346 351 351 350 346 348 349 351 349 348 349 349 351 352 350
334 336 336 337 339 340 344 347 358 351 352 351 350 349 348 346 345 348 347 345 350 351 351 354 356 357 357 357 354 351 354 352 350 349 350 349 348 350 352 349 350 350 350 350 350 351 351 350 351
334 335 338 340 342 353 344 345 351 348 348 348 349 348 346 346 347 349 352 351 352 352 352 357 358 359 358 359 358 354 355 356 356 354 352 351 350 351 350 352 352 351 351 352 350 350 354 352 354
335 334 338 346 350 350 346 359 356 345 346 347 346 347 346 346 346 345 347 351 351 352 354 357 361 362 361 358 358 358 355 358 355 353 354 350 348 352 352 349 351 351 352 351 353 351 353 354 353
335 336 337 339 340 344 346 350 350 348 347 346 344 346 346 346 346 347 349 349 350 352 352 352 361 361 361 361 361 360 359 360 356 356 356 355 353 352 353 352 351 352 352 351 354 352 353 351 351
334 338 342 341 346 348 356 353 354 348 348 346 344 345 346 347 347 348 349 349 350 348 351 354 358 360 360 360 360 361 357 358 361 360 357 357 353 354 353 352 352 351 351 351 350 351 352 350 350
333 335 336 340 340 344 359 353 347 351 348 346 346 346 346 348 348 350 350 349 349 349 353 355 356 357 360 361 360 359 357 358 359 360 358 357 357 356 355 355 354 354 352 352 352 350 352 353 351
334 335 334 337 343 342 348 355 346 348 344 345 345 347 346 348 349 350 351 351 353 356 360 357 348 342 340 343 343 349 354 356 355 358 358 356 354 355 353 352 353 353 354 353 351 352 352 351 350
Wind_Speed
10 13 11 7 1 3 5 7 11 18 11 12 11 17 13 16 6 9 29 29 31 26 25 22 22 20 20 20 20 18 18 19 19 17 16 17 16 16 15 14 13 14 14 14 14 13 14 14 14
11 12 8 5 4 2 5 13 12 19 17 9 15 16 21 17 20 21 23 31 27 26 26 23 22 21 20 19 19 18 16 15 16 14 14 14 15 14 13 13 13 13 12 12 12 12 12 12 12
9 7 7 2 4 2 3 4 9 14 13 4 9 22 9 20 19 17 31 32 29 25 25 23 23 21 21 20 18 17 17 15 14 13 12 12 13 13 12 11 11 11 10 9 9 10 10 10 10
10 3 4 6 11 17 12 3 10 14 13 20 5 12 15 20 18 27 31 30 28 28 26 25 23 21 21 19 19 17 16 15 14 12 11 11 10 10 10 9 8 8 7 6 6 7 8 8 10
8 4 2 4 11 8 13 12 20 2 6 16 18 17 14 10 27 27 29 29 31 29 26 24 23 22 22 20 18 16 15 15 14 12 11 10 9 7 7 5 5 4 4 3 3 4 5 8 8
4 4 3 1 7 5 8 8 14 9 10 15 9 17 11 12 22 25 28 29 32 28 26 24 22 22 21 19 18 15 15 15 15 13 12 11 6 4 3 3 2 1 1 1 1 3 5 6 7
9 3 9 7 9 6 7 7 7 16 18 14 11 14 10 17 22 22 27 35 27 28 27 23 20 19 19 18 17 16 15 15 15 13 10 10 3 3 2 1 1 1 2 3 4 4 7 7 7
6 7 5 3 9 10 5 7 22 15 11 12 10 9 14 19 23 20 28 28 29 29 24 23 21 19 18 17 16 15 16 17 15 12 10 9 7 5 3 0 3 3 5 4 5 6 8 8 8
2 4 2 11 13 10 4 8 14 18 7 12 9 16 21 24 23 20 24 26 26 25 24 24 22 20 19 17 15 16 15 16 14 14 8 6 9 9 6 6 6 10 11 10 8 6 7 9 9
11 3 4 15 2 12 4 6 6 17 23 16 9 20 25 22 25 22 28 25 28 25 24 22 22 20 18 18 17 17 16 15 14 15 13 8 10 12 8 9 11 10 10 10 9 8 11 8 9
7 1 2 3 10 14 11 16 10 22 8 10 9 11 20 21 22 21 22 31 28 27 26 25 25 22 20 19 19 17 19 16 13 12 12 12 10 13 7 9 7 12 10 7 11 9 12 15 7
10 7 1 6 3 1 12 3 25 13 12 21 26 22 19 18 19 22 24 24 29 29 29 27 28 25 19 21 18 18 18 14 13 10 10 14 12 18 11 11 8 7 6 10 7 12 17 16 11
12 4 2 7 3 7 3 7 5 9 8 17 16 16 15 16 19 23 26 23 19 26 28 24 30 26 20 18 17 17 16 14 15 13 13 11 10 11 12 7 7 8 10 11 13 12 4 7 8
10 6 7 6 5 2 5 3 3 9 5 2 11 18 14 14 19 20 11 22 20 17 18 26 24 20 18 15 14 17 14 15 12 13 14 14 14 14 12 12 9 8 12 13 10 6 6 6 15
12 9 9 9 7 1 1 3 14 4 2 6 12 13 10 7 25 24 14 12 19 22 20 18 20 22 16 14 11 15 13 12 11 12 12 14 15 16 15 12 12 5 8 8 10 7 7 9 9
13 13 11 5 6 6 5 6 17 24 6 8 11 8 2 15 20 18 17 24 8 14 19 23 21 23 20 15 15 12 12 12 12 11 9 12 13 14 14 10 9 8 5 10 10 8 7 10 10
10 10 5 12 11 4 6 6 16 20 5 11 11 8 9 19 18 20 20 24 8 4 15 9 18 23 20 17 14 13 9 9 12 9 11 14 14 13 14 12 10 8 7 8 9 7 6 9 7
6 2 12 10 1 10 5 14 9 6 3 4 10 8 6 9 14 19 24 11 3 5 4 22 10 15 15 14 13 11 9 11 10 11 10 14 13 13 16 13 9 8 10 11 8 8 7 12 10
11 16 11 12 8 4 1 4 6 6 3 2 9 12 7 9 12 12 12 9 4 5 8 10 10 10 12 13 11 12 10 11 9 7 4 5 9 16 12 13 11 12 12 14 10 8 11 14 10
9 12 12 7 7 6 9 5 6 5 3 7 8 8 8 10 12 11 15 16 19 21 16 19 19 15 15 13 11 9 9 7 9 9 7 8 13 16 13 11 11 10 14 13 10 6 8 20 14
12 14 2 4 9 9 9 7 6 5 6 2 10 11 9 12 14 15 18 24 21 24 22 18 16 15 15 13 11 9 6 8 9 9 9 12 14 14 17 14 14 12 13 14 13 9 9 17 7
15 14 9 11 11 9 8 4 4 9 11 7 12 14 12 15 16 17 20 19 28 18 14 14 14 14 14 13 12 11 10 9 10 10 10 13 14 15 15 15 18 16 13 16 12 13 12 9 13
17 7 14 15 13 17 13 7 6 7 8 10 11 15 15 19 17 16 15 16 17 18 18 17 16 15 11 12 7 6 9 10 8 10 10 13 13 17 16 18 18 16 16 18 15 14 9 10 9
19 12 11 14 14 13 10 11 6 8 14 16 14 14 13 16 15 12 22 18 18 20 21 20 17 14 11 13 11 11 8 7 9 12 14 15 15 15 16 17 19 19 20 19 16 13 12 10 12
15 13 11 10 11 3 11 4 3 17 21 12 17 15 14 14 16 15 17 18 21 21 21 20 21 16 14 12 10 11 9 10 13 12 15 15 15 15 16 18 17 17 18 18 16 15 11 11 10
11 17 12 6 7 6 23 9 4 14 12 15 16 18 17 17 15 14 12 17 18 13 23 21 21 17 16 12 11 11 10 11 10 10 12 15 15 15 14 15 17 16 16 17 17 16 14 14 14
18 15 9 6 9 8 2 4 12 25 22 16 17 18 18 16 16 16 14 14 11 11 8 7 17 11 11 13 11 9 9 9 5 4 6 10 10 16 15 15 14 16 15 16 18 19 18 18 12
20 7 5 1 5 14 5 2 2 26 12 17 17 18 18 17 16 15 13 15 14 14 15 13 9 8 7 8 9 9 6 5 2 4 5 1 5 8 12 13 13 14 16 17 18 18 20 20 18
15 17 14 16 7 6 7 4 18 25 23 15 18 18 18 17 15 14 12 16 15 15 21 21 9 5 11 13 9 6 3 1 2 4 5 5 6 7 7 10 12 14 16 16 17 19 22 18 20
19 18 19 12 13 13 5 5 11 15 11 15 18 17 17 15 14 15 14 17 10 13 22 23 19 16 13 11 11 7 4 5 3 2 4 6 6 5 9 12 13 15 14 16 19 19 20 21 22
Wind_Direction
265 263 253 268 201 24 224 107 113 40 3 76 55 90 103 141 163 122 147 125 128 138 142 142 146 146 144 143 142 135 125 120 117 112 105 98 95 92 92 94 98 95 98 106 108 112 115 116 113
267 277 258 267 338 86 35 65 83 139 230 122 79 82 80 90 104 132 118 132 132 138 140 144 149 151 149 146 145 145 135 124 120 116 107 100 97 95 93 90 92 92 103 105 111 114 122 121 126
276 306 273 166 79 318 116 137 171 145 90 69 107 115 77 108 122 128 131 135 136 141 141 147 147 148 148 147 145 142 142 135 127 120 109 102 100 99 96 91 89 91 93 106 115 119 128 134 131
290 18 288 299 149 214 97 307 68 22 114 100 163 75 74 112 122 129 140 137 137 146 141 149 148 146 147 145 146 144 144 142 135 126 116 106 104 102 101 100 96 96 98 108 118 129 139 148 149
247 96 190 303 70 90 134 91 80 290 63 97 102 88 94 82 115 141 143 139 136 126 135 145 153 150 150 150 148 147 143 141 139 131 121 111 107 104 99 95 96 97 107 125 139 135 171 172 170
34 13 41 228 101 64 86 86 132 174 88 100 69 84 98 130 127 152 142 132 132 132 135 142 153 155 155 154 154 154 153 151 147 137 131 125 114 110 99 100 86 50 13 277 222 207 196 210 194
156 251 246 162 46 118 127 136 110 33 28 92 95 86 118 123 145 154 131 123 134 136 135 141 148 150 154 159 161 161 158 151 145 138 143 151 144 148 151 138 81 307 285 268 269 232 229 231 218
300 177 93 319 77 299 114 98 103 96 348 286 122 122 137 140 151 152 137 132 132 133 140 146 151 153 153 157 160 157 155 153 164 170 156 158 190 175 180 164 253 272 288 279 257 244 231 234 229
324 21 96 87 140 199 121 130 126 134 37 279 40 143 144 149 151 149 122 123 130 137 144 153 157 161 163 164 164 165 165 172 181 192 206 189 217 196 197 234 264 287 284 276 268 239 233 230 212
102 211 275 131 262 11 101 98 273 80 34 345 23 116 139 160 154 155 132 137 144 152 152 159 167 168 174 174 177 177 179 191 205 208 206 235 244 215 214 262 285 285 291 275 258 234 235 217 216
112 320 292 77 87 84 311 288 88 101 111 199 251 148 147 164 157 158 163 150 153 158 157 169 170 179 178 180 172 174 187 188 210 214 221 246 227 214 231 280 277 294 286 286 246 247 231 216 260
354 170 2 12 57 199 208 337 122 122 192 175 208 234 160 172 163 172 173 163 159 158 167 169 178 183 169 166 166 180 191 197 212 233 238 231 220 214 247 255 265 269 297 255 238 241 235 239 230
185 169 236 185 245 249 303 60 13 51 154 194 208 153 176 186 159 174 168 147 154 162 167 170 175 172 179 175 181 181 193 204 216 211 228 211 215 228 226 246 258 276 283 277 274 277 252 283 256
312 244 262 176 234 154 269 92 304 44 28 174 148 161 175 199 175 151 108 143 148 155 164 151 165 161 170 185 183 185 193 209 209 216 211 205 218 224 225 221 254 265 300 267 276 302 253 244 273
258 249 232 220 181 120 34 136 8 44 32 105 202 140 175 108 51 94 77 8 174 166 182 178 170 174 175 182 183 190 190 205 204 211 208 210 221 219 228 237 230 278 284 290 277 274 241 254 242
231 243 241 34 191 134 251 52 322 293 203 135 111 113 162 65 94 85 73 74 293 161 184 177 178 174 179 172 185 187 196 212 203 199 202 202 212 210 212 219 210 263 294 285 280 269 285 270 278
206 235 215 209 243 275 200 188 227 269 262 127 123 174 179 110 106 127 148 168 198 167 186 174 196 176 173 179 196 191 201 212 198 194 202 203 212 204 205 216 227 243 274 285 286 295 275 302 297
271 343 210 171 277 243 334 169 174 195 301 195 192 187 116 116 132 160 163 156 224 243 224 186 166 153 168 173 188 191 212 213 232 211 219 196 197 207 207 214 211 228 266 265 269 290 293 302 305
253 199 233 178 135 245 313 85 110 147 187 151 88 128 134 130 148 125 138 147 203 198 199 200 177 169 174 186 183 194 202 217 225 222 236 197 205 212 217 219 223 227 251 271 274 310 312 308 294
237 271 254 113 166 213 195 126 123 172 88 7 85 85 103 134 138 156 152 142 198 216 223 199 187 182 188 188 191 190 199 220 210 199 191 212 214 215 222 219 228 234 242 258 267 281 321 300 313
251 248 284 288 242 226 256 91 58 349 117 87 96 107 142 154 163 172 186 192 207 207 195 183 186 186 190 194 186 196 189 148 161 175 199 243 226 234 231 225 232 240 240 249 253 240 245 257 298
241 229 188 252 248 246 199 214 33 314 338 178 142 159 170 159 168 179 187 186 185 155 170 182 184 188 195 195 193 193 195 186 212 228 247 227 237 242 242 236 232 234 240 240 259 257 241 251 276
261 194 266 267 239 256 189 68 311 332 302 245 175 175 157 166 171 169 152 117 136 153 163 172 183 190 198 191 188 210 202 214 221 234 234 233 244 246 238 224 231 238 239 239 247 254 253 260 277
244 251 258 261 262 254 138 208 238 221 228 226 169 173 155 147 144 107 128 185 169 163 164 161 171 178 191 192 189 205 209 212 223 229 229 234 233 239 234 228 225 228 234 236 240 240 251 262 280
251 259 259 233 244 344 324 277 187 217 231 216 165 156 151 149 142 162 157 170 199 163 157 165 164 174 194 197 201 202 211 218 229 226 230 231 225 225 226 226 223 225 232 231 237 237 250 251 262
212 236 255 283 318 303 295 17 327 262 225 178 162 152 162 161 152 151 161 153 169 157 170 168 163 175 186 198 203 210 214 222 240 240 239 226 223 215 214 213 219 218 223 220 222 228 234 243 244
250 224 175 208 247 265 335 58 319 285 243 156 161 161 160 168 160 155 161 156 159 155 169 154 156 166 194 196 192 205 222 229 220 199 224 203 220 219 213 209 209 217 221 227 229 226 236 239 252
244 122 65 308 244 248 41 36 219 298 272 169 161 166 165 167 165 159 159 160 160 160 152 132 141 157 170 154 185 191 205 237 253 272 254 231 246 193 206 214 212 221 221 226 232 237 242 240 242
218 241 244 211 243 283 155 191 164 236 259 180 165 172 170 171 165 149 156 153 183 194 149 132 142 103 106 88 93 101 146 23 284 257 276 278 279 261 241 229 228 233 230 229 231 238 246 245 244
245 238 230 238 244 215 104 187 209 220 242 222 169 173 171 165 161 151 165 164 156 87 92 92 96 92 92 99 97 104 75 104 92 339 293 269 278 282 264 253 249 244 242 243 240 236 243 251 248